#timestamp,LO_Frequency,Hit,StdDev 
1632916815.9,286046998.7,P
1632916835.7,286046998.6,N
1632916855.6,286047001.2,N
1632916875.4,286047000.2,N
1632916895.2,286047000.4,N
1632916915.1,286047000.4,N
1632916916.0,286047000.4,N
1632916935.8,286047000.2,N
1632916955.7,286047000.0,N
1632916975.5,286047000.9,N
1632916995.3,286046998.2,N
1632917015.2,286046998.5,N
1632917035.0,286047000.3,N
1632917035.9,286047000.3,N
1632917055.8,286047002.8,N
1632917075.6,286046998.3,N
1632917095.4,286046998.2,N
1632917115.3,286046998.7,N
1632917135.1,286046999.3,N
1632917155.9,286046999.3,N
1632917175.7,286046997.1,N
1632917195.5,286046997.9,N
1632917215.4,286046994.3,Y
1632917235.2,286046995.7,P
1632917255.1,286046996.8,N
1632917256.0,286046996.8,N
1632917275.8,286046998.8,N
1632917295.6,286047001.0,N
1632917315.5,286047000.9,N
1632917335.3,286046998.2,N
1632917355.2,286047001.1,N
1632917375.9,286046999.1,N
1632917395.7,286046997.9,N
1632917415.6,286046996.0,N
1632917435.4,286046993.4,Y
1632917455.2,286046994.9,P
1632917475.1,286046995.3,N
1632917476.0,286046995.3,N
1632917495.8,286046993.3,Y
1632917515.7,286047000.9,P
1632917535.5,286046998.3,N
1632917555.4,286047000.8,N
1632917575.2,286047001.0,N
1632917595.0,286047002.7,N
1632917595.9,286047002.7,N
1632917615.8,286047001.7,N
1632917635.6,286047001.5,N
1632917655.5,286047002.7,N
1632917675.3,286047002.6,N
1632917695.1,286047002.3,N
1632917715.9,286047001.5,N
1632917735.7,286047001.4,N
1632917755.6,286047004.2,N
1632917775.4,286047001.4,N
1632917795.2,286047001.5,N
1632917815.1,286047001.7,N
1632917816.0,286047001.7,N
1632917835.8,286047001.9,N
1632917855.6,286047002.0,N
1632917875.5,286047001.0,N
1632917895.3,286047002.3,N
1632917915.2,286047003.7,N
1632917935.9,286047003.0,N
1632917955.7,286047005.1,Y
1632917975.6,286047005.7,P
1632917995.4,286047007.4,P
1632918015.3,286047008.9,P
1632918035.1,286047008.1,N
1632918036.0,286047008.1,Y
1632918055.8,286047004.2,P
1632918075.7,286047002.1,N
1632918095.5,286047002.7,N
1632918115.3,286047000.2,N
1632918135.2,286047002.5,N
1632918155.0,286047002.0,N
1632918155.9,286047002.0,N
1632918175.8,286047002.8,N
1632918195.6,286046999.8,N
1632918215.4,286046999.7,N
1632918235.3,286047002.8,N
1632918255.1,286047002.2,N
1632918275.9,286046999.8,N
1632918295.7,286046999.8,N
1632918315.5,286047001.7,N
1632918335.4,286047002.6,N
1632918355.2,286046999.8,N
1632918375.1,286047000.2,N
1632918376.0,286047000.2,N
1632918395.8,286047000.5,N
1632918415.6,286046999.4,N
1632918435.5,286046997.2,N
1632918455.3,286046997.5,N
1632918475.1,286046995.2,N
1632918495.9,286046995.0,N
1632918515.7,286046997.8,N
1632918535.6,286046996.1,N
1632918555.4,286046995.4,N
1632918575.2,286046995.7,N
1632918595.1,286046997.9,N
1632918596.0,286046997.9,N
1632918615.8,286046997.4,N
1632918635.7,286046996.6,N
1632918655.5,286046999.0,N
1632918675.3,286046999.5,N
1632918695.2,286046998.2,N
1632918715.9,286047000.7,N
1632918735.7,286047002.8,N
1632918755.6,286046999.8,N
1632918775.4,286047002.1,N
1632918795.3,286047002.3,N
1632918815.1,286047004.0,N
1632918816.0,286047004.0,N
1632918835.8,286047004.4,N
1632918855.7,286047002.0,N
1632918875.5,286047003.7,N
1632918895.3,286047001.4,N
1632918915.2,286047002.5,N
1632918935.0,286047002.1,N
1632918935.9,286047002.1,N
1632918955.8,286047002.0,N
1632918975.6,286047002.2,N
1632918995.4,286047002.5,N
1632919015.3,286047001.9,N
1632919035.1,286047002.8,N
1632919055.9,286046999.7,N
1632919075.7,286047000.5,N
1632919095.5,286046998.5,N
1632919115.4,286047001.2,N
1632919135.2,286047001.1,N
1632919155.1,286047000.9,N
1632919156.0,286047000.9,N
1632919175.8,286047002.1,N
1632919195.6,286047001.9,N
1632919215.5,286047002.8,N
1632919235.3,286047002.7,N
1632919255.1,286047002.1,N
1632919275.9,286046999.9,N
1632919295.7,286046999.9,N
1632919315.6,286047002.3,N
1632919335.4,286047000.2,N
1632919355.2,286047000.3,N
1632919375.1,286047001.0,N
1632919376.0,286047001.0,N
1632919395.8,286046999.0,N
1632919415.6,286046998.1,N
1632919435.5,286047001.2,N
1632919455.3,286047000.9,N
1632919475.2,286046999.7,N
1632919495.9,286047002.7,N
1632919515.7,286047000.0,N
1632919535.6,286047000.2,N
1632919555.4,286047000.2,N
1632919575.3,286047000.3,N
1632919595.1,286047000.9,N
1632919596.0,286047000.9,N
1632919615.8,286046998.2,N
1632919635.7,286046999.4,N
1632919655.5,286046998.1,N
1632919675.3,286046998.1,N
1632919695.2,286047001.0,N
1632919715.0,286047001.2,N
1632919715.9,286047001.2,N
1632919735.8,286046999.9,N
1632919755.6,286046998.5,N
1632919775.4,286046996.7,N
1632919795.3,286046997.0,N
1632919815.1,286046997.8,N
1632919835.8,286046996.9,N
1632919855.7,286046999.1,N
1632919875.5,286047000.9,N
1632919895.4,286047000.9,N
1632919915.2,286047000.8,N
1632919935.0,286046998.2,N
1632919935.9,286046998.2,N
1632919955.8,286046998.2,N
1632919975.6,286047001.0,N
1632919995.5,286046998.3,N
1632920015.3,286046997.2,N
1632920035.1,286046998.0,N
1632920055.9,286046995.1,Y
1632920075.7,286046995.4,P
1632920095.5,286046997.8,N
1632920115.4,286046997.4,N
1632920135.2,286046997.7,N
1632920155.1,286046997.2,N
1632920156.0,286046997.2,N
1632920175.8,286046999.2,N
1632920195.7,286046999.6,N
1632920215.5,286046998.8,N
1632920235.3,286046999.3,N
1632920255.2,286046998.7,N
1632920275.0,286046996.7,N
1632920275.9,286046996.7,N
1632920295.7,286046996.6,N
1632920315.6,286046995.0,Y
1632920335.4,286046998.4,P
1632920355.3,286046998.8,P
1632920375.1,286047001.1,N
1632920395.8,286047000.7,N
